Weather History for Poplar Bluff, MO

Change the Weather History Date:

Friday, March 1, 2013

  Actual Average Record
Temperature  
Mean Temperature 36 °F -  
Max Temperature 39 °F 54 °F 76 °F (1972)
Min Temperature 32 °F 31 °F 7 °F (1989)
Degree Days  
Heating Degree Days 30    
Moisture  
Dew Point 29 °F    
Average Humidity 79    
Maximum Humidity 89    
Minimum Humidity 65    
Precipitation  
Precipitation 0.00 in - - ()
Sea Level Pressure  
Sea Level Pressure 30.13 in    
Wind  
Wind Speed 7 mph (NW)    
Max Wind Speed 14 mph    
Max Gust Speed -    
Visibility 6 miles    
Events Snow    
Averages and records for this station are not official NWS values.
T = Trace of Precipitation, MM = Missing Value Source: NWS Daily Summary

Daily Weather History Graph

Daily Weather History Graph

Search for Another Location

Airport:

Trip Planner

Search our weather history database for the weather conditions in past years. The results will help you decide how hot, cold, wet, or windy it might be!

Date:

Astronomy

Mar. 01, 2013 Rise Set
Actual Time 6:31 AM CST 5:55 PM CST
Civil Twilight 6:05 AM CST 6:21 PM CST
Nautical Twilight 5:35 AM CST 6:51 PM CST
Astronomical Twilight 5:05 AM CST 7:21 PM CST
Moon 10:21 PM CST (3/1) 8:26 AM CST (3/1)
Length of Visible Light 12h 16m
Length of Day
11h 24m
Waning Gibbous, 83% of the Moon is Illuminated
Mar 1
Waning Gibbous
Mar 4
Last Quarter
Mar 11
New
Mar 19
First Quarter
Mar 27
Full

Hourly Weather History & Observations

Time (CST) Temp. Windchill Dew Point Humidity Pressure Visibility Wind Dir Wind Speed Gust Speed Precip Events Conditions
12:53 AM 34.0 °F 28.8 °F 28.9 °F 82% 30.12 in 5.0 mi NW 5.8 mph - 0.00 in Snow Light Snow
1:14 AM 33.8 °F 29.6 °F 30.2 °F 87% 30.11 in 2.5 mi West 4.6 mph - 0.00 in Snow Light Snow
1:51 AM 33.8 °F 28.6 °F 30.2 °F 87% 30.10 in 3.0 mi West 5.8 mph - 0.00 in Snow Light Snow
1:53 AM 33.1 °F 28.7 °F 30.0 °F 89% 30.12 in 3.0 mi West 4.6 mph - 0.00 in Snow Light Snow
2:22 AM 33.8 °F 30.8 °F 30.2 °F 87% 30.10 in 6.0 mi West 3.5 mph - 0.00 in   Overcast
2:53 AM 33.1 °F 28.7 °F 28.9 °F 85% 30.11 in 3.0 mi WNW 4.6 mph - 0.00 in Snow Light Snow
3:18 AM 33.8 °F 29.6 °F 30.2 °F 87% 30.09 in 3.0 mi WNW 4.6 mph - 0.00 in Snow Light Snow
3:53 AM 33.1 °F 27.7 °F 28.9 °F 85% 30.10 in 6.0 mi West 5.8 mph - 0.00 in   Overcast
4:53 AM 33.1 °F 26.9 °F 28.9 °F 85% 30.11 in 4.0 mi West 6.9 mph - 0.00 in Snow Light Snow
5:53 AM 32.0 °F 26.4 °F 28.0 °F 85% 30.11 in 7.0 mi WNW 5.8 mph - 0.00 in   Overcast
6:53 AM 32.0 °F 25.6 °F 28.0 °F 85% 30.12 in 7.0 mi WNW 6.9 mph - N/A   Overcast
7:53 AM 34.0 °F 26.6 °F 28.0 °F 79% 30.13 in 7.0 mi NW 9.2 mph - N/A   Overcast
8:53 AM 35.1 °F 27.9 °F 28.0 °F 76% 30.14 in 8.0 mi NW 9.2 mph - N/A   Overcast
9:53 AM 36.0 °F 27.1 °F 28.0 °F 73% 30.14 in 4.0 mi NW 13.8 mph - 0.00 in Snow Light Snow
10:53 AM 37.0 °F 29.8 °F 28.0 °F 70% 30.14 in 7.0 mi NW 10.4 mph - 0.00 in   Overcast
11:49 AM 37.4 °F 30.3 °F 28.4 °F 70% 30.12 in 10.0 mi North 10.4 mph - N/A   Overcast
11:53 AM 37.0 °F 30.4 °F 28.0 °F 70% 30.14 in 10.0 mi NNW 9.2 mph - N/A   Overcast
12:06 PM 37.4 °F 30.8 °F 26.6 °F 65% 30.12 in 10.0 mi NW 9.2 mph - N/A   Overcast
12:33 PM 37.4 °F 30.8 °F 26.6 °F 65% 30.12 in 5.0 mi NW 9.2 mph - 0.00 in Snow Light Snow
12:43 PM 37.4 °F 29.8 °F 28.4 °F 70% 30.12 in 2.0 mi WNW 11.5 mph - 0.00 in Snow Light Snow
12:45 PM 35.6 °F 28.0 °F 28.4 °F 75% 30.12 in 1.8 mi NW 10.4 mph - 0.00 in Snow Light Snow
12:53 PM 37.0 °F 30.4 °F 28.9 °F 73% 30.13 in 1.5 mi NW 9.2 mph - 0.00 in Snow Light Snow
1:00 PM 37.4 °F 29.8 °F 28.4 °F 70% 30.11 in 3.0 mi WNW 11.5 mph - 0.00 in Snow Light Snow
1:53 PM 39.0 °F 34.8 °F 28.0 °F 65% 30.12 in 10.0 mi NNW 5.8 mph - 0.00 in   Overcast
2:42 PM 37.4 °F 31.4 °F 28.4 °F 70% 30.09 in 8.0 mi WNW 8.1 mph - 0.00 in Snow Light Snow
2:53 PM 37.9 °F 29.6 °F 28.9 °F 70% 30.11 in 6.0 mi NNW 13.8 mph - 0.00 in Snow Light Snow
3:10 PM 37.4 °F 32.1 °F 28.4 °F 70% 30.10 in 5.0 mi NNW 6.9 mph - 0.00 in Snow Light Snow
3:53 PM 37.0 °F 31.0 °F 28.9 °F 73% 30.12 in 5.0 mi NNW 8.1 mph - 0.00 in Snow Light Snow
4:53 PM 36.0 °F 28.5 °F 28.9 °F 76% 30.13 in 10.0 mi WNW 10.4 mph - 0.00 in   Overcast
5:24 PM 35.6 °F 29.2 °F 30.2 °F 81% 30.12 in 2.0 mi NW 8.1 mph - 0.00 in Snow Light Snow
5:35 PM 35.6 °F 30.7 °F 30.2 °F 81% 30.12 in 6.0 mi WNW 5.8 mph - 0.00 in   Haze
5:53 PM 35.1 °F 30.1 °F 30.0 °F 82% 30.15 in 8.0 mi NW 5.8 mph - 0.00 in   Overcast
6:53 PM 35.1 °F 29.3 °F 28.9 °F 78% 30.17 in 5.0 mi NW 6.9 mph - 0.00 in Snow Light Snow
7:18 PM 33.8 °F 29.6 °F 30.2 °F 87% 30.15 in 4.0 mi NW 4.6 mph - 0.00 in Snow Light Snow
7:25 PM 33.8 °F 29.6 °F 30.2 °F 87% 30.15 in 4.0 mi NW 4.6 mph - 0.00 in Snow Light Snow
7:32 PM 33.8 °F 28.6 °F 30.2 °F 87% 30.15 in 4.0 mi NW 5.8 mph - 0.00 in Snow Light Snow
7:44 PM 33.8 °F 29.6 °F 30.2 °F 87% 30.15 in 4.0 mi NW 4.6 mph - 0.00 in Snow Light Snow
7:53 PM 34.0 °F 28.8 °F 30.0 °F 85% 30.17 in 5.0 mi WNW 5.8 mph - 0.00 in Snow Light Snow
8:08 PM 33.8 °F 30.8 °F 30.2 °F 87% 30.15 in 4.0 mi WNW 3.5 mph - 0.00 in Snow Light Snow
8:45 PM 33.8 °F 27.7 °F 28.4 °F 81% 30.16 in 7.0 mi NW 6.9 mph - 0.00 in   Overcast
8:53 PM 33.1 °F 28.7 °F 28.9 °F 85% 30.18 in 9.0 mi NW 4.6 mph - 0.00 in   Overcast
9:32 PM 33.8 °F 30.8 °F 28.4 °F 81% 30.16 in 8.0 mi NW 3.5 mph - N/A   Overcast
9:51 PM 33.8 °F 29.6 °F 28.4 °F 81% 30.16 in 10.0 mi NW 4.6 mph - N/A   Overcast
9:53 PM 33.1 °F 28.7 °F 28.0 °F 82% 30.18 in 10.0 mi NW 4.6 mph - N/A   Overcast
10:44 PM 33.8 °F 27.7 °F 28.4 °F 81% 30.17 in 10.0 mi NNW 6.9 mph - N/A   Overcast
10:53 PM 33.1 °F 27.7 °F 28.0 °F 82% 30.18 in 10.0 mi NNW 5.8 mph - N/A   Overcast
11:07 PM 33.8 °F 27.7 °F 28.4 °F 81% 30.17 in 10.0 mi NNW 6.9 mph - N/A   Overcast
11:53 PM 33.1 °F 26.9 °F 27.0 °F 78% 30.19 in 10.0 mi NNW 6.9 mph - N/A   Overcast